Погода в Ощепково

Россия / Тюменская область     56°28′59″N   70°41′56″E
темп.,
°C
ветер,
м/с
пор.,
м/с
влажн.,
%
обл.,
%
осадки,
мм/ч
давл.,
гПа
погр.,
м
4 марта, чт
чт423:00−7ююз51194100 0.5 1005446
02:00−6ююз51195100 0.6 1003486
05:00−5ююз51195100 1.0 1003493
08:00−5ююз5129499 0.3 1001473
11:00−2ююз5893100 0.4 999628
14:00−1ююз4698100 0.6 998470
17:00−1юз2398100 1.3 997174
20:00−2юз3798100 0.5 996201
5 марта, пт
пт523:00−4зюз4995100 0.8 997368
02:00−8юз5119498 0.0 999305
05:00−10юз6129299 0.1 1001298
08:00−12ююз5129250 0.0 1002280
11:00−7ююз8149475 0.6 1001845
14:00−4ююз91592100 0.6 1000941
17:00−1юз91491100 0.9 10001082
20:00−1зюз71395100 0.8 1000953
6 марта, сб
сб623:00−1юз61297100 2.8 1002726
02:00−2зюз4995100 1.5 1001553
05:00−3зюз4893100 1.7 1002385
08:00−5зюз51191100 0.6 1002570
11:00−7з7118669 0.6 1004621
14:00−7зюз7128431 0.0 1006796
17:00−9зюз5118415 0.0 1008470
20:00−12юз511920 0.0 1010215
7 марта, вс
вс723:00−14зюз49962 0.0 1011151
02:00−17юз34975 0.0 101152
05:00−16ю239546 0.0 101129
08:00−13ююв3590100 0.0 1009192
11:00−10в3495100 0.8 1006260
14:00−7всв4692100 0.6 1004516
17:00−7ссв3694100 1.2 1003473
20:00−9ссз3696100 0.2 1004137
8 марта, пн
пн823:00−12ссз349698 0.3 100756
02:00−15сз349773 0.0 100935
05:00−18сз239853 0.0 101120
08:00−18зсз229615 0.0 101220
11:00−13з239019 0.0 1013256
14:00−10юз238698 0.0 1013541
17:00−11ююз249399 0.1 101398
20:00−12ююз3894100 0.0 1014193